• In Kazakhstan
  • List of Countries
  • For 7 days
  • Water Temperature
  • Satellite Maps
  • Weather Map
  • News
  • Weather Widgets
  • user-avatar
    Login

    Hourly Weather Rogatyy Prud

    Today, 23 May, Thursday

    Time Temperature Precipitation Wind Pressure Humidity
    00:00 +12°C° 0 mm 3 mps 744 mmHg 73%
    01:00 +13°C° 0 mm 2 mps 743 mmHg 74%
    02:00 +12°C° 0 mm 2 mps 743 mmHg 75%
    03:00 +12°C° 0 mm 2 mps 742 mmHg 79%
    04:00 +12°C° 0 mm 2 mps 742 mmHg 79%
    05:00 +13°C° 0 mm 2 mps 742 mmHg 79%
    06:00 +13°C° 0 mm 2 mps 741 mmHg 79%
    07:00 +15°C° 0 mm 2 mps 741 mmHg 73%
    08:00 +17°C° 0 mm 2 mps 741 mmHg 68%
    09:00 +18°C° 0 mm 3 mps 741 mmHg 64%
    10:00 +19°C° 0 mm 3 mps 740 mmHg 62%
    11:00 +20°C° 0 mm 3 mps 740 mmHg 61%
    12:00 +21°C° 0 mm 3 mps 740 mmHg 59%
    13:00 +21°C° 0 mm 2 mps 740 mmHg 57%
    14:00 +23°C° 0 mm 2 mps 739 mmHg 55%
    15:00 +23°C° 0 mm 1 mps 739 mmHg 53%
    16:00 +23°C° 0 mm 1 mps 739 mmHg 57%
    17:00 +23°C° 0 mm 1 mps 739 mmHg 61%
    18:00 +23°C° 0 mm 1 mps 738 mmHg 65%
    19:00 +20°C° 0.2 mm 2 mps 738 mmHg 71%
    20:00 +18°C° 0.2 mm 2 mps 738 mmHg 77%
    21:00 +17°C° 0.2 mm 2 mps 738 mmHg 82%
    22:00 +16°C° 0.1 mm 2 mps 738 mmHg 85%
    23:00 +16°C° 0.1 mm 2 mps 738 mmHg 88%

    Tomorrow, 24 May, Friday

    Time Temperature Precipitation Wind Pressure Humidity
    00:00 +15°C° 0.1 mm 2 mps 738 mmHg 91%
    01:00 +15°C° 0 mm 2 mps 739 mmHg 92%
    02:00 +15°C° 0 mm 2 mps 739 mmHg 92%
    03:00 +14°C° 0 mm 2 mps 739 mmHg 92%
    04:00 +15°C° 0 mm 2 mps 739 mmHg 91%
    05:00 +16°C° 0 mm 2 mps 739 mmHg 89%
    06:00 +16°C° 0 mm 2 mps 740 mmHg 88%
    07:00 +18°C° 0.1 mm 2 mps 740 mmHg 83%
    08:00 +19°C° 0.1 mm 3 mps 740 mmHg 78%
    09:00 +21°C° 0.1 mm 3 mps 741 mmHg 73%
    10:00 +21°C° 0.7 mm 3 mps 741 mmHg 73%
    11:00 +22°C° 0.7 mm 4 mps 741 mmHg 73%
    12:00 +22°C° 0.7 mm 4 mps 742 mmHg 72%
    13:00 +22°C° 0.3 mm 5 mps 742 mmHg 73%
    14:00 +21°C° 0.3 mm 5 mps 742 mmHg 73%
    15:00 +21°C° 0.3 mm 5 mps 743 mmHg 73%
    16:00 +20°C° 0 mm 5 mps 743 mmHg 74%
    17:00 +20°C° 0 mm 5 mps 743 mmHg 75%
    18:00 +19°C° 0 mm 4 mps 743 mmHg 76%
    19:00 +18°C° 0 mm 4 mps 743 mmHg 79%
    20:00 +17°C° 0 mm 4 mps 744 mmHg 82%
    21:00 +14°C° 0 mm 3 mps 744 mmHg 85%
    22:00 +14°C° 0 mm 4 mps 744 mmHg 83%
    23:00 +14°C° 0 mm 4 mps 744 mmHg 80%

    Day after tomorrow, 25 May, Saturday

    Time Temperature Precipitation Wind Pressure Humidity
    00:00 +13°C° 0 mm 4 mps 745 mmHg 78%
    01:00 +13°C° 0 mm 5 mps 745 mmHg 79%
    02:00 +13°C° 0 mm 5 mps 745 mmHg 79%
    03:00 +13°C° 0 mm 5 mps 745 mmHg 80%
    04:00 +12°C° 0.2 mm 5 mps 745 mmHg 78%
    05:00 +12°C° 0.2 mm 5 mps 745 mmHg 77%
    06:00 +10°C° 0.2 mm 6 mps 745 mmHg 76%
    07:00 +11°C° 0.5 mm 6 mps 745 mmHg 77%
    08:00 +14°C° 0.5 mm 6 mps 745 mmHg 78%
    09:00 +15°C° 0.5 mm 6 mps 745 mmHg 79%
    10:00 +16°C° 0.4 mm 6 mps 745 mmHg 78%
    11:00 +17°C° 0.4 mm 7 mps 745 mmHg 77%
    12:00 +20°C° 0.4 mm 7 mps 744 mmHg 76%
    13:00 +20°C° 0 mm 6 mps 744 mmHg 75%
    14:00 +20°C° 0 mm 6 mps 744 mmHg 75%
    15:00 +21°C° 0 mm 6 mps 744 mmHg 75%
    16:00 +20°C° 0.8 mm 6 mps 743 mmHg 77%
    17:00 +20°C° 0.8 mm 6 mps 743 mmHg 79%
    18:00 +20°C° 0.8 mm 6 mps 742 mmHg 81%
    19:00 +19°C° 0.6 mm 5 mps 742 mmHg 84%
    20:00 +17°C° 0.6 mm 5 mps 742 mmHg 86%
    21:00 +17°C° 0.6 mm 4 mps 742 mmHg 89%
    22:00 +16°C° 0.6 mm 5 mps 742 mmHg 91%
    23:00 +15°C° 0.6 mm 5 mps 742 mmHg 93%

    26 May, Sunday

    Time Temperature Precipitation Wind Pressure Humidity
    00:00 +15°C° 0.6 mm 5 mps 741 mmHg 95%
    01:00 +15°C° 0.2 mm 5 mps 741 mmHg 95%
    02:00 +15°C° 0.2 mm 5 mps 741 mmHg 94%
    03:00 +15°C° 0.2 mm 5 mps 740 mmHg 93%
    04:00 +15°C° 0.7 mm 5 mps 740 mmHg 94%
    05:00 +15°C° 0.7 mm 5 mps 740 mmHg 95%
    06:00 +15°C° 0.7 mm 4 mps 739 mmHg 95%
    07:00 +16°C° 0.1 mm 5 mps 739 mmHg 93%
    08:00 +17°C° 0.1 mm 5 mps 739 mmHg 90%
    09:00 +19°C° 0.1 mm 6 mps 739 mmHg 87%
    10:00 +19°C° 0.1 mm 6 mps 739 mmHg 84%
    11:00 +20°C° 0.1 mm 6 mps 739 mmHg 81%
    12:00 +21°C° 0.1 mm 6 mps 738 mmHg 78%
    13:00 +21°C° 0.9 mm 6 mps 738 mmHg 77%
    14:00 +21°C° 0.9 mm 5 mps 738 mmHg 76%
    15:00 +22°C° 0.9 mm 5 mps 737 mmHg 74%
    16:00 +21°C° 0.8 mm 4 mps 737 mmHg 76%
    17:00 +21°C° 0.8 mm 2 mps 737 mmHg 77%
    18:00 +22°C° 0.8 mm 1 mps 737 mmHg 79%
    19:00 +20°C° 0.1 mm 1 mps 737 mmHg 83%
    20:00 +18°C° 0.1 mm 2 mps 737 mmHg 87%
    21:00 +17°C° 0.1 mm 2 mps 737 mmHg 91%
    22:00 +16°C° 0 mm 2 mps 738 mmHg 92%
    23:00 +16°C° 0 mm 2 mps 738 mmHg 93%

    27 May, Monday

    Time Temperature Precipitation Wind Pressure Humidity
    00:00 +16°C° 0 mm 2 mps 738 mmHg 94%
    01:00 +16°C° 0.1 mm 3 mps 738 mmHg 94%
    02:00 +16°C° 0.1 mm 3 mps 739 mmHg 94%
    03:00 +14°C° 0.1 mm 4 mps 739 mmHg 95%
    04:00 +15°C° 0 mm 4 mps 740 mmHg 93%
    05:00 +15°C° 0 mm 4 mps 740 mmHg 92%
    06:00 +15°C° 0 mm 5 mps 741 mmHg 90%
    07:00 +16°C° 0 mm 5 mps 742 mmHg 84%
    08:00 +19°C° 0 mm 5 mps 742 mmHg 78%
    09:00 +20°C° 0 mm 5 mps 743 mmHg 72%
    10:00 +20°C° 0 mm 5 mps 743 mmHg 67%
    11:00 +21°C° 0 mm 6 mps 743 mmHg 63%
    12:00 +22°C° 0 mm 6 mps 744 mmHg 58%
    13:00 +22°C° 0 mm 6 mps 744 mmHg 59%
    14:00 +22°C° 0 mm 6 mps 744 mmHg 59%
    15:00 +23°C° 0 mm 7 mps 745 mmHg 60%
    16:00 +22°C° 0.1 mm 5 mps 745 mmHg 64%
    17:00 +22°C° 0.1 mm 4 mps 745 mmHg 68%
    18:00 +21°C° 0.1 mm 3 mps 745 mmHg 72%
    19:00 +20°C° 0 mm 3 mps 746 mmHg 77%
    20:00 +18°C° 0 mm 3 mps 746 mmHg 81%
    21:00 +16°C° 0 mm 2 mps 747 mmHg 85%
    22:00 +16°C° 0 mm 2 mps 747 mmHg 87%
    23:00 +15°C° 0 mm 2 mps 747 mmHg 88%

    28 May, Tuesday

    Time Temperature Precipitation Wind Pressure Humidity
    00:00 +15°C° 0 mm 2 mps 747 mmHg 90%
    01:00 +15°C° 0 mm 1 mps 748 mmHg 90%
    02:00 +14°C° 0 mm 1 mps 748 mmHg 90%
    03:00 +14°C° 0 mm 1 mps 748 mmHg 90%
    04:00 +15°C° 0 mm 1 mps 749 mmHg 88%
    05:00 +15°C° 0 mm 1 mps 749 mmHg 85%
    06:00 +16°C° 0 mm 1 mps 749 mmHg 83%
    07:00 +19°C° 0 mm 1 mps 750 mmHg 78%
    08:00 +20°C° 0 mm 1 mps 750 mmHg 72%
    09:00 +21°C° 0 mm 2 mps 750 mmHg 67%
    10:00 +23°C° 0 mm 2 mps 750 mmHg 64%
    11:00 +24°C° 0 mm 2 mps 750 mmHg 60%
    12:00 +25°C° 0 mm 2 mps 750 mmHg 57%
    13:00 +25°C° 0 mm 2 mps 750 mmHg 56%
    14:00 +25°C° 0 mm 2 mps 750 mmHg 55%
    15:00 +26°C° 0 mm 1 mps 750 mmHg 54%
    16:00 +26°C° 0 mm 1 mps 750 mmHg 58%
    17:00 +26°C° 0 mm 1 mps 750 mmHg 61%
    18:00 +24°C° 0 mm 0 mps 750 mmHg 65%
    19:00 +24°C° 0 mm 1 mps 750 mmHg 68%
    20:00 +22°C° 0 mm 1 mps 750 mmHg 71%
    21:00 +20°C° 0 mm 2 mps 750 mmHg 74%
    22:00 +19°C° 0 mm 2 mps 750 mmHg 76%
    23:00 +19°C° 0 mm 2 mps 750 mmHg 78%
    Show more